| time (UTC) | temp F | wind direction | speed MPH | gust MPH | rain 1hr in | rain 24hr in | rain mn in | humidity % | barometer mb |
| 20260510141503 | 70 | 150 | 6.0 | 11.0 | 0.00 | 0.00 | 0.00 | 68 | 1008.9 |
| 20260510141003 | 71 | 165 | 3.0 | 10.0 | 0.00 | 0.00 | 0.00 | 68 | 1009.0 |
| 20260510140503 | 71 | 163 | 3.0 | 7.0 | 0.00 | 0.00 | 0.00 | 68 | 1009.1 |
| 20260510140003 | 70 | 166 | 3.0 | 6.0 | 0.00 | 0.00 | 0.00 | 68 | 1009.3 |
| 20260510135503 | 70 | 162 | 5.0 | 8.0 | 0.00 | 0.00 | 0.00 | 67 | 1009.2 |
| 20260510135003 | 70 | 155 | 4.0 | 12.0 | 0.00 | 0.00 | 0.00 | 67 | 1009.1 |
| 20260510134503 | 71 | 164 | 3.0 | 10.0 | 0.00 | 0.00 | 0.00 | 67 | 1009.3 |
| 20260510134003 | 71 | 151 | 4.0 | 10.0 | 0.00 | 0.00 | 0.00 | 67 | 1009.3 |
| 20260510133503 | 71 | 160 | 2.0 | 6.0 | 0.00 | 0.00 | 0.00 | 67 | 1009.1 |
| 20260510133003 | 70 | 158 | 5.0 | 12.0 | 0.00 | 0.00 | 0.00 | 67 | 1009.1 |
| 20260510132503 | 70 | 152 | 5.0 | 14.0 | 0.00 | 0.00 | 0.00 | 66 | 1009.2 |
| 20260510132003 | 71 | 161 | 5.0 | 9.0 | 0.00 | 0.00 | 0.00 | 66 | 1009.3 |
| 20260510131503 | 71 | 158 | 4.0 | 8.0 | 0.00 | 0.00 | 0.00 | 67 | 1009.1 |
| 20260510131003 | 70 | 150 | 5.0 | 11.0 | 0.00 | 0.00 | 0.00 | 66 | 1009.3 |
| 20260510130503 | 70 | 162 | 4.0 | 10.0 | 0.00 | 0.00 | 0.00 | 67 | 1009.3 |
| 20260510130003 | 70 | 165 | 4.0 | 11.0 | 0.00 | 0.00 | 0.00 | 67 | 1009.3 |
| 20260510125503 | 70 | 161 | 4.0 | 9.0 | 0.00 | 0.00 | 0.00 | 67 | 1009.3 |
| 20260510125004 | 71 | 157 | 4.0 | 12.0 | 0.00 | 0.00 | 0.00 | 67 | 1009.4 |
| 20260510124503 | 71 | 154 | 4.0 | 11.0 | 0.00 | 0.00 | 0.00 | 67 | 1009.5 |
| 20260510124003 | 71 | 154 | 2.0 | 10.0 | 0.00 | 0.00 | 0.00 | 68 | 1009.4 |
| 20260510123503 | 70 | 152 | 5.0 | 12.0 | 0.00 | 0.00 | 0.00 | 68 | 1009.4 |
| 20260510123003 | 70 | 155 | 6.0 | 14.0 | 0.00 | 0.00 | 0.00 | 68 | 1009.4 |
| 20260510122503 | 70 | 151 | 5.0 | 12.0 | 0.00 | 0.00 | 0.00 | 68 | 1009.3 |
| 20260510122003 | 70 | 150 | 7.0 | 13.0 | 0.00 | 0.00 | 0.00 | 68 | 1009.5 |
| 20260510121503 | 71 | 164 | 4.0 | 11.0 | 0.00 | 0.00 | 0.00 | 67 | 1009.5 |
| 20260510121003 | 70 | 152 | 3.0 | 10.0 | 0.00 | 0.00 | 0.00 | 68 | 1009.5 |
| 20260510120503 | 69 | 144 | 6.0 | 12.0 | 0.00 | 0.00 | 0.00 | 68 | 1009.4 |
| 20260510120003 | 69 | 147 | 6.0 | 14.0 | 0.00 | 0.00 | 0.00 | 67 | 1009.5 |
| 20260510115503 | 70 | 154 | 6.0 | 13.0 | 0.00 | 0.00 | 0.00 | 66 | 1009.4 |
| 20260510115003 | 71 | 161 | 4.0 | 13.0 | 0.00 | 0.00 | 0.00 | 65 | 1009.4 |
| 20260510114503 | 72 | 144 | 2.0 | 7.0 | 0.00 | 0.00 | 0.00 | 65 | 1009.4 |
| 20260510114003 | 71 | 127 | 3.0 | 7.0 | 0.00 | 0.00 | 0.00 | 65 | 1009.5 |
| 20260510113503 | 71 | 143 | 4.0 | 9.0 | 0.00 | 0.00 | 0.00 | 64 | 1009.5 |
| 20260510113003 | 72 | 161 | 2.0 | 9.0 | 0.00 | 0.00 | 0.00 | 63 | 1009.6 |
| 20260510112503 | 71 | 139 | 4.0 | 12.0 | 0.00 | 0.00 | 0.00 | 62 | 1009.5 |
| 20260510112003 | 71 | 141 | 5.0 | 12.0 | 0.00 | 0.00 | 0.00 | 63 | 1009.6 |
| 20260510111503 | 71 | 141 | 4.0 | 11.0 | 0.00 | 0.00 | 0.00 | 64 | 1009.4 |
| 20260510111003 | 70 | 148 | 4.0 | 12.0 | 0.00 | 0.00 | 0.00 | 66 | 1009.5 |
| 20260510110503 | 69 | 140 | 5.0 | 16.0 | 0.00 | 0.00 | 0.00 | 66 | 1009.6 |
| 20260510110003 | 69 | 142 | 6.0 | 12.0 | 0.00 | 0.00 | 0.00 | 66 | 1009.6 |
| 20260510105503 | 70 | 142 | 4.0 | 16.0 | 0.00 | 0.00 | 0.00 | 65 | 1009.8 |
| 20260510105003 | 70 | 145 | 4.0 | 11.0 | 0.00 | 0.00 | 0.00 | 66 | 1009.8 |
| 20260510104503 | 70 | 152 | 5.0 | 13.0 | 0.00 | 0.00 | 0.00 | 65 | 1009.7 |
| 20260510104003 | 69 | 133 | 5.0 | 13.0 | 0.00 | 0.00 | 0.00 | 65 | 1009.6 |
| 20260510103503 | 69 | 150 | 5.0 | 13.0 | 0.00 | 0.00 | 0.00 | 63 | 1009.7 |
| 20260510103003 | 70 | 139 | 6.0 | 15.0 | 0.00 | 0.00 | 0.00 | 63 | 1009.6 |
| 20260510102503 | 70 | 136 | 5.0 | 14.0 | 0.00 | 0.00 | 0.00 | 63 | 1009.6 |
| 20260510102003 | 70 | 148 | 5.0 | 13.0 | 0.00 | 0.00 | 0.00 | 61 | 1009.8 |
| 20260510101503 | 71 | 146 | 4.0 | 12.0 | 0.00 | 0.00 | 0.00 | 60 | 1009.9 |
| 20260510101003 | 70 | 143 | 5.0 | 12.0 | 0.00 | 0.00 | 0.00 | 60 | 1009.8 |
| 20260510100503 | 70 | 131 | 6.0 | 12.0 | 0.00 | 0.00 | 0.00 | 61 | 1009.7 |
| 20260510100003 | 70 | 139 | 5.0 | 15.0 | 0.00 | 0.00 | 0.00 | 60 | 1009.8 |
| 20260510095503 | 71 | 152 | 4.0 | 12.0 | 0.00 | 0.00 | 0.00 | 59 | 1009.9 |
| 20260510095003 | 71 | 141 | 4.0 | 13.0 | 0.00 | 0.00 | 0.00 | 58 | 1010.1 |
| 20260510094503 | 70 | 144 | 6.0 | 13.0 | 0.00 | 0.00 | 0.00 | 56 | 1010.2 |
| 20260510094003 | 71 | 134 | 4.0 | 11.0 | 0.00 | 0.00 | 0.00 | 56 | 1010.2 |
| 20260510093503 | 71 | 147 | 5.0 | 12.0 | 0.00 | 0.00 | 0.00 | 56 | 1010.3 |
| 20260510093003 | 71 | 141 | 4.0 | 9.0 | 0.00 | 0.00 | 0.00 | 58 | 1010.4 |
| 20260510092503 | 71 | 146 | 4.0 | 13.0 | 0.00 | 0.00 | 0.00 | 57 | 1010.5 |
| 20260510092003 | 71 | 140 | 6.0 | 14.0 | 0.00 | 0.00 | 0.00 | 55 | 1010.4 |
| 20260510091503 | 71 | 135 | 4.0 | 11.0 | 0.00 | 0.00 | 0.00 | 55 | 1010.5 |
| 20260510091003 | 71 | 142 | 4.0 | 12.0 | 0.00 | 0.00 | 0.00 | 55 | 1010.4 |
| 20260510090503 | 71 | 122 | 4.0 | 11.0 | 0.00 | 0.00 | 0.00 | 56 | 1010.3 |
| 20260510090003 | 71 | 142 | 3.0 | 7.0 | 0.00 | 0.00 | 0.00 | 58 | 1010.4 |
| 20260510085503 | 70 | 131 | 4.0 | 12.0 | 0.00 | 0.00 | 0.00 | 59 | 1010.4 |
| 20260510085003 | 70 | 142 | 4.0 | 11.0 | 0.00 | 0.00 | 0.00 | 60 | 1010.6 |
| 20260510084503 | 71 | 134 | 3.0 | 7.0 | 0.00 | 0.00 | 0.00 | 61 | 1010.7 |
| 20260510084003 | 71 | 97 | 2.0 | 5.0 | 0.00 | 0.00 | 0.00 | 62 | 1010.7 |
| 20260510083503 | 70 | 139 | 2.0 | 9.0 | 0.00 | 0.00 | 0.00 | 64 | 1010.8 |
| 20260510083003 | 70 | 132 | 5.0 | 10.0 | 0.00 | 0.00 | 0.00 | 64 | 1010.7 |
| 20260510082503 | 70 | 137 | 3.0 | 9.0 | 0.00 | 0.00 | 0.00 | 66 | 1010.7 |
| 20260510082003 | 70 | 131 | 3.0 | 9.0 | 0.00 | 0.00 | 0.00 | 66 | 1010.8 |
| 20260510081503 | 70 | 116 | 2.0 | 5.0 | 0.00 | 0.00 | 0.00 | 66 | 1010.7 |
| 20260510081003 | 69 | 136 | 2.0 | 4.0 | 0.00 | 0.00 | 0.00 | 67 | 1010.6 |
| 20260510080503 | 69 | 123 | 2.0 | 6.0 | 0.00 | 0.00 | 0.00 | 67 | 1010.8 |
| 20260510080003 | 69 | 103 | 2.0 | 8.0 | 0.00 | 0.00 | 0.00 | 67 | 1010.8 |
| 20260510075503 | 69 | 118 | 1.0 | 4.0 | 0.00 | 0.00 | 0.00 | 67 | 1010.7 |
| 20260510075003 | 69 | 126 | 2.0 | 6.0 | 0.00 | 0.00 | 0.00 | 68 | 1010.9 |
| 20260510074503 | 69 | 113 | 1.0 | 4.0 | 0.00 | 0.00 | 0.00 | 68 | 1010.7 |
| 20260510074003 | 68 | 88 | 3.0 | 8.0 | 0.00 | 0.00 | 0.00 | 68 | 1010.7 |
| 20260510073503 | 67 | 64 | 2.0 | 7.0 | 0.00 | 0.00 | 0.00 | 68 | 1010.7 |
| 20260510073003 | 67 | 64 | 3.0 | 9.0 | 0.00 | 0.00 | 0.00 | 69 | 1010.6 |
| 20260510072503 | 67 | 81 | 2.0 | 5.0 | 0.00 | 0.00 | 0.00 | 70 | 1010.6 |
| 20260510072003 | 66 | 65 | 3.0 | 7.0 | 0.00 | 0.00 | 0.00 | 71 | 1010.6 |
| 20260510071503 | 66 | 42 | 3.0 | 8.0 | 0.00 | 0.00 | 0.00 | 71 | 1010.6 |
| 20260510071003 | 65 | 54 | 4.0 | 7.0 | 0.00 | 0.00 | 0.00 | 71 | 1010.6 |
| 20260510070503 | 64 | 53 | 3.0 | 6.0 | 0.00 | 0.00 | 0.00 | 72 | 1010.6 |
| 20260510070003 | 64 | 53 | 3.0 | 7.0 | 0.00 | 0.00 | 0.00 | 72 | 1010.7 |
| 20260510065503 | 63 | 50 | 2.0 | 5.0 | 0.00 | 0.00 | 0.00 | 72 | 1010.7 |
| 20260510065003 | 63 | 26 | 2.0 | 4.0 | 0.00 | 0.00 | 0.00 | 72 | 1010.6 |
| 20260510064503 | 62 | 26 | 3.0 | 5.0 | 0.00 | 0.00 | 0.00 | 72 | 1010.7 |
| 20260510064003 | 62 | 26 | 3.0 | 5.0 | 0.00 | 0.00 | 0.00 | 72 | 1010.8 |
| 20260510063503 | 61 | 39 | 3.0 | 5.0 | 0.00 | 0.00 | 0.00 | 72 | 1010.7 |
| 20260510063003 | 61 | 41 | 3.0 | 6.0 | 0.00 | 0.00 | 0.00 | 72 | 1010.6 |
| 20260510062503 | 61 | 29 | 3.0 | 6.0 | 0.00 | 0.00 | 0.00 | 72 | 1010.7 |
| 20260510062003 | 60 | 37 | 4.0 | 7.0 | 0.00 | 0.00 | 0.00 | 72 | 1010.5 |
| 20260510061503 | 60 | 49 | 5.0 | 7.0 | 0.00 | 0.00 | 0.00 | 72 | 1010.5 |
| 20260510061003 | 60 | 52 | 4.0 | 7.0 | 0.00 | 0.00 | 0.00 | 72 | 1010.7 |
| 20260510060503 | 60 | 51 | 3.0 | 6.0 | 0.00 | 0.00 | 0.00 | 73 | 1010.6 |
| 20260510060003 | 60 | 45 | 2.0 | 4.0 | 0.00 | 0.00 | 0.00 | 72 | 1010.8 |
| 20260510055503 | 60 | 45 | 2.0 | 3.0 | 0.00 | 0.00 | 0.00 | 72 | 1010.9 |
| 20260510055003 | 60 | 35 | 3.0 | 5.0 | 0.00 | 0.00 | 0.00 | 72 | 1010.8 |
| 20260510054503 | 60 | 43 | 4.0 | 7.0 | 0.00 | 0.00 | 0.00 | 72 | 1010.5 |
| 20260510054003 | 60 | 42 | 4.0 | 6.0 | 0.00 | 0.00 | 0.00 | 72 | 1010.6 |
| 20260510053503 | 60 | 26 | 4.0 | 6.0 | 0.00 | 0.00 | 0.00 | 72 | 1010.6 |
| 20260510053003 | 60 | 38 | 5.0 | 7.0 | 0.00 | 0.00 | 0.00 | 72 | 1010.5 |
| 20260510052503 | 60 | 54 | 6.0 | 9.0 | 0.00 | 0.00 | 0.00 | 73 | 1010.2 |
| 20260510052003 | 60 | 53 | 5.0 | 7.0 | 0.00 | 0.00 | 0.00 | 72 | 1010.3 |
| 20260510051503 | 59 | 51 | 4.0 | 5.0 | 0.00 | 0.00 | 0.00 | 72 | 1010.6 |
| 20260510051003 | 59 | 49 | 2.0 | 4.0 | 0.00 | 0.00 | 0.00 | 72 | 1010.9 |
| 20260510050503 | 59 | 45 | 1.0 | 2.0 | 0.00 | 0.00 | 0.00 | 72 | 1011.0 |
| 20260510050004 | 59 | 47 | 2.0 | 3.0 | 0.00 | 0.00 | 0.00 | 72 | 1011.0 |
| 20260510045503 | 59 | 45 | 1.0 | 3.0 | 0.00 | 0.00 | 0.00 | 72 | 1011.1 |
| 20260510045003 | 59 | 45 | 1.0 | 2.0 | 0.00 | 0.00 | 0.00 | 72 | 1011.2 |
| 20260510044503 | 59 | 49 | 2.0 | 3.0 | 0.00 | 0.00 | 0.00 | 72 | 1011.2 |
| 20260510044003 | 59 | 48 | 3.0 | 4.0 | 0.00 | 0.00 | 0.00 | 72 | 1011.2 |
| 20260510043503 | 59 | 42 | 2.0 | 3.0 | 0.00 | 0.00 | 0.00 | 72 | 1011.3 |
| 20260510043003 | 59 | 22 | 0.0 | 1.0 | 0.00 | 0.00 | 0.00 | 72 | 1011.4 |
| 20260510042503 | 59 | 22 | 1.0 | 2.0 | 0.00 | 0.00 | 0.00 | 72 | 1011.4 |
| 20260510042003 | 60 | 29 | 2.0 | 3.0 | 0.00 | 0.00 | 0.00 | 72 | 1011.6 |
| 20260510041503 | 60 | 45 | 1.0 | 2.0 | 0.00 | 0.00 | 0.00 | 72 | 1011.6 |
| 20260510041003 | 60 | 0 | 0.0 | 0.0 | 0.00 | 0.00 | 0.00 | 72 | 1011.6 |
| 20260510040503 | 60 | 0 | 0.0 | 0.0 | 0.00 | 0.00 | 0.00 | 72 | 1011.7 |
| 20260510040003 | 60 | 0 | 0.0 | 0.0 | 0.00 | 0.00 | 0.00 | 72 | 1011.8 |
| 20260510035503 | 60 | 45 | 0.0 | 1.0 | 0.00 | 0.00 | 0.00 | 72 | 1011.8 |
| 20260510035003 | 59 | 45 | 0.0 | 1.0 | 0.00 | 0.00 | 0.00 | 72 | 1011.8 |
| 20260510034503 | 59 | 45 | 0.0 | 1.0 | 0.00 | 0.00 | 0.00 | 72 | 1011.8 |
| 20260510034003 | 59 | 40 | 0.0 | 1.0 | 0.00 | 0.00 | 0.00 | 72 | 1011.8 |
| 20260510033503 | 58 | 22 | 0.0 | 1.0 | 0.00 | 0.00 | 0.00 | 72 | 1011.8 |
| 20260510033003 | 58 | 22 | 0.0 | 1.0 | 0.00 | 0.00 | 0.00 | 72 | 1011.8 |
| 20260510032503 | 58 | 22 | 0.0 | 1.0 | 0.00 | 0.00 | 0.00 | 72 | 1011.9 |
| 20260510032003 | 58 | 0 | 0.0 | 0.0 | 0.00 | 0.00 | 0.00 | 72 | 1011.9 |
| 20260510031503 | 58 | 0 | 0.0 | 0.0 | 0.00 | 0.00 | 0.00 | 72 | 1011.7 |
| 20260510031003 | 58 | 0 | 0.0 | 0.0 | 0.00 | 0.00 | 0.00 | 72 | 1011.6 |
| 20260510030503 | 58 | 22 | 0.0 | 1.0 | 0.00 | 0.00 | 0.00 | 73 | 1011.3 |
| 20260510030003 | 58 | 22 | 1.0 | 2.0 | 0.00 | 0.00 | 0.00 | 72 | 1011.2 |
| 20260510025503 | 58 | 22 | 2.0 | 4.0 | 0.00 | 0.00 | 0.00 | 72 | 1011.1 |
| 20260510025003 | 58 | 39 | 1.0 | 4.0 | 0.00 | 0.00 | 0.00 | 73 | 1010.9 |
| 20260510024503 | 58 | 22 | 2.0 | 3.0 | 0.00 | 0.00 | 0.00 | 73 | 1010.6 |
| 20260510024003 | 58 | 22 | 2.0 | 4.0 | 0.00 | 0.00 | 0.00 | 72 | 1010.5 |
| 20260510023503 | 58 | 22 | 2.0 | 2.0 | 0.00 | 0.00 | 0.00 | 73 | 1010.6 |
| 20260510023003 | 58 | 22 | 1.0 | 3.0 | 0.00 | 0.00 | 0.00 | 73 | 1010.6 |
| 20260510022503 | 58 | 22 | 0.0 | 1.0 | 0.00 | 0.00 | 0.00 | 72 | 1010.8 |
| 20260510022003 | 58 | 22 | 0.0 | 1.0 | 0.00 | 0.00 | 0.00 | 73 | 1010.9 |
| 20260510021503 | 58 | 22 | 0.0 | 1.0 | 0.00 | 0.00 | 0.00 | 73 | 1010.8 |
| 20260510021003 | 58 | 22 | 1.0 | 1.0 | 0.00 | 0.00 | 0.00 | 73 | 1010.7 |
| 20260510020503 | 58 | 22 | 0.0 | 1.0 | 0.00 | 0.00 | 0.00 | 73 | 1010.7 |
| 20260510020003 | 58 | 22 | 1.0 | 2.0 | 0.00 | 0.00 | 0.00 | 73 | 1010.8 |
| 20260510015503 | 58 | 22 | 0.0 | 1.0 | 0.00 | 0.00 | 0.00 | 73 | 1010.9 |
| 20260510015003 | 58 | 22 | 0.0 | 1.0 | 0.00 | 0.00 | 0.00 | 73 | 1011.2 |
| 20260510014503 | 58 | 22 | 1.0 | 2.0 | 0.00 | 0.00 | 0.00 | 73 | 1011.1 |
| 20260510014003 | 58 | 22 | 1.0 | 2.0 | 0.00 | 0.00 | 0.00 | 73 | 1011.0 |
| 20260510013503 | 58 | 22 | 2.0 | 3.0 | 0.00 | 0.00 | 0.00 | 73 | 1010.8 |
| 20260510013003 | 58 | 22 | 1.0 | 2.0 | 0.00 | 0.00 | 0.00 | 73 | 1010.6 |
| 20260510012503 | 58 | 22 | 1.0 | 2.0 | 0.00 | 0.00 | 0.00 | 73 | 1010.5 |
| 20260510012003 | 58 | 22 | 0.0 | 2.0 | 0.00 | 0.00 | 0.00 | 73 | 1010.5 |
| 20260510011503 | 58 | 22 | 1.0 | 3.0 | 0.00 | 0.00 | 0.00 | 73 | 1010.4 |
| 20260510011003 | 58 | 22 | 2.0 | 4.0 | 0.00 | 0.00 | 0.00 | 72 | 1010.5 |
| 20260510010503 | 58 | 22 | 1.0 | 3.0 | 0.00 | 0.00 | 0.00 | 72 | 1010.7 |
| 20260510010003 | 58 | 22 | 1.0 | 1.0 | 0.00 | 0.00 | 0.00 | 72 | 1010.7 |
| 20260510005503 | 59 | 22 | 0.0 | 2.0 | 0.00 | 0.00 | 0.00 | 72 | 1010.9 |
| 20260510005003 | 59 | 22 | 0.0 | 1.0 | 0.00 | 0.00 | 0.00 | 72 | 1011.0 |
| 20260510004503 | 59 | 22 | 1.0 | 2.0 | 0.00 | 0.00 | 0.00 | 72 | 1010.8 |
| 20260510004003 | 59 | 22 | 0.0 | 2.0 | 0.00 | 0.00 | 0.00 | 72 | 1010.7 |
| 20260510003503 | 60 | 22 | 1.0 | 3.0 | 0.00 | 0.00 | 0.00 | 73 | 1010.8 |
| 20260510003004 | 60 | 22 | 1.0 | 3.0 | 0.00 | 0.00 | 0.00 | 72 | 1010.6 |
| 20260510002503 | 60 | 22 | 1.0 | 2.0 | 0.00 | 0.00 | 0.00 | 72 | 1010.6 |
| 20260510002003 | 60 | 22 | 1.0 | 3.0 | 0.00 | 0.00 | 0.00 | 72 | 1010.5 |
| 20260510001503 | 60 | 22 | 1.0 | 2.0 | 0.00 | 0.00 | 0.00 | 73 | 1010.6 |
| 20260510001003 | 60 | 22 | 1.0 | 2.0 | 0.00 | 0.00 | 0.00 | 73 | 1010.6 |
| 20260510000503 | 60 | 22 | 0.0 | 2.0 | 0.00 | 0.00 | 0.00 | 73 | 1010.7 |
| 20260510000003 | 60 | 22 | 0.0 | 1.0 | 0.00 | 0.00 | 0.00 | 73 | 1010.7 |
| 20260509235503 | 60 | 22 | 0.0 | 2.0 | 0.00 | 0.00 | 0.00 | 73 | 1010.5 |
| 20260509235003 | 60 | 22 | 1.0 | 2.0 | 0.00 | 0.00 | 0.00 | 73 | 1010.7 |
| 20260509234503 | 60 | 22 | 1.0 | 2.0 | 0.00 | 0.00 | 0.00 | 73 | 1010.8 |
| 20260509234003 | 60 | 0 | 0.0 | 0.0 | 0.00 | 0.00 | 0.00 | 72 | 1011.1 |
| 20260509233503 | 60 | 0 | 0.0 | 0.0 | 0.00 | 0.00 | 0.00 | 72 | 1011.0 |
| 20260509233003 | 60 | 0 | 0.0 | 0.0 | 0.00 | 0.00 | 0.00 | 73 | 1011.1 |
| 20260509232503 | 60 | 0 | 0.0 | 0.0 | 0.00 | 0.00 | 0.00 | 73 | 1011.3 |
| 20260509232003 | 60 | 22 | 1.0 | 2.0 | 0.00 | 0.00 | 0.00 | 72 | 1011.1 |
| 20260509231503 | 60 | 22 | 0.0 | 2.0 | 0.00 | 0.00 | 0.00 | 72 | 1011.2 |
| 20260509231003 | 60 | 22 | 1.0 | 2.0 | 0.00 | 0.00 | 0.00 | 72 | 1011.6 |
| 20260509230503 | 59 | 22 | 1.0 | 2.0 | 0.00 | 0.00 | 0.00 | 72 | 1011.3 |
| 20260509230004 | 59 | 0 | 0.0 | 0.0 | 0.00 | 0.00 | 0.00 | 72 | 1011.1 |
| 20260509225503 | 60 | 22 | 0.0 | 2.0 | 0.00 | 0.00 | 0.00 | 72 | 1011.1 |
| 20260509225003 | 60 | 22 | 0.0 | 1.0 | 0.00 | 0.00 | 0.00 | 72 | 1011.1 |
| 20260509224503 | 60 | 22 | 1.0 | 2.0 | 0.00 | 0.00 | 0.00 | 73 | 1011.0 |
| 20260509224003 | 60 | 22 | 1.0 | 3.0 | 0.00 | 0.00 | 0.00 | 72 | 1011.1 |
| 20260509223503 | 60 | 22 | 1.0 | 3.0 | 0.00 | 0.00 | 0.00 | 72 | 1011.1 |
| 20260509223003 | 60 | 22 | 1.0 | 2.0 | 0.00 | 0.00 | 0.00 | 72 | 1011.0 |
| 20260509222503 | 60 | 22 | 1.0 | 2.0 | 0.00 | 0.00 | 0.00 | 72 | 1011.1 |
| 20260509222003 | 60 | 22 | 0.0 | 2.0 | 0.00 | 0.00 | 0.00 | 72 | 1011.1 |
| 20260509221503 | 60 | 22 | 1.0 | 3.0 | 0.00 | 0.00 | 0.00 | 72 | 1011.0 |
| 20260509221003 | 60 | 23 | 1.0 | 3.0 | 0.00 | 0.00 | 0.00 | 72 | 1011.2 |
| 20260509220503 | 60 | 24 | 3.0 | 5.0 | 0.00 | 0.00 | 0.00 | 72 | 1011.0 |
| 20260509220004 | 60 | 22 | 3.0 | 5.0 | 0.00 | 0.00 | 0.00 | 72 | 1010.9 |
| 20260509215503 | 60 | 24 | 3.0 | 4.0 | 0.00 | 0.00 | 0.00 | 72 | 1011.0 |
| 20260509215003 | 60 | 22 | 2.0 | 4.0 | 0.00 | 0.00 | 0.00 | 72 | 1011.2 |
| 20260509214503 | 61 | 23 | 3.0 | 6.0 | 0.00 | 0.00 | 0.00 | 72 | 1011.3 |
| 20260509214003 | 61 | 22 | 2.0 | 4.0 | 0.00 | 0.00 | 0.00 | 72 | 1011.4 |
| 20260509213503 | 61 | 22 | 1.0 | 2.0 | 0.00 | 0.00 | 0.00 | 72 | 1011.5 |
| 20260509213003 | 61 | 22 | 1.0 | 2.0 | 0.00 | 0.00 | 0.00 | 72 | 1011.6 |
| 20260509212503 | 61 | 22 | 1.0 | 3.0 | 0.00 | 0.00 | 0.00 | 72 | 1011.7 |
| 20260509212003 | 62 | 22 | 1.0 | 3.0 | 0.00 | 0.00 | 0.00 | 72 | 1012.1 |
| 20260509211503 | 62 | 22 | 2.0 | 4.0 | 0.00 | 0.00 | 0.00 | 72 | 1012.1 |
| 20260509211003 | 62 | 22 | 2.0 | 4.0 | 0.00 | 0.00 | 0.00 | 72 | 1012.3 |
| 20260509210503 | 62 | 22 | 2.0 | 4.0 | 0.00 | 0.00 | 0.00 | 72 | 1012.2 |
| 20260509210003 | 62 | 22 | 1.0 | 2.0 | 0.00 | 0.00 | 0.00 | 72 | 1012.4 |
| 20260509205503 | 62 | 22 | 1.0 | 2.0 | 0.00 | 0.00 | 0.00 | 72 | 1012.2 |
| 20260509205003 | 62 | 22 | 0.0 | 2.0 | 0.00 | 0.00 | 0.00 | 72 | 1012.4 |
| 20260509204503 | 62 | 22 | 0.0 | 1.0 | 0.00 | 0.00 | 0.00 | 72 | 1012.3 |
| 20260509204003 | 62 | 22 | 0.0 | 1.0 | 0.00 | 0.00 | 0.00 | 72 | 1012.5 |
| 20260509203503 | 62 | 22 | 0.0 | 1.0 | 0.00 | 0.00 | 0.00 | 72 | 1012.4 |
| 20260509203003 | 62 | 22 | 0.0 | 2.0 | 0.00 | 0.00 | 0.00 | 72 | 1012.4 |
| 20260509202503 | 62 | 22 | 2.0 | 2.0 | 0.00 | 0.00 | 0.00 | 72 | 1012.5 |
| 20260509202003 | 62 | 22 | 2.0 | 3.0 | 0.00 | 0.00 | 0.00 | 72 | 1012.4 |
| 20260509201503 | 62 | 22 | 1.0 | 2.0 | 0.00 | 0.00 | 0.00 | 72 | 1012.4 |
| 20260509201003 | 63 | 22 | 1.0 | 3.0 | 0.00 | 0.00 | 0.00 | 72 | 1012.3 |
| 20260509200503 | 63 | 22 | 2.0 | 4.0 | 0.00 | 0.00 | 0.00 | 72 | 1012.4 |
| 20260509195503 | 63 | 34 | 2.0 | 3.0 | 0.00 | 0.00 | 0.00 | 72 | 1012.2 |
| 20260509195003 | 63 | 45 | 1.0 | 2.0 | 0.00 | 0.00 | 0.00 | 72 | 1012.2 |
| 20260509194503 | 64 | 45 | 0.0 | 1.0 | 0.00 | 0.00 | 0.00 | 72 | 1012.3 |
| 20260509194003 | 63 | 0 | 0.0 | 0.0 | 0.00 | 0.00 | 0.00 | 72 | 1012.3 |
| 20260509193503 | 63 | 0 | 0.0 | 0.0 | 0.00 | 0.00 | 0.00 | 72 | 1012.3 |
| 20260509193008 | 64 | 0 | 0.0 | 0.0 | 0.00 | 0.00 | 0.00 | 72 | 1012.4 |
| 20260509192503 | 64 | 0 | 0.0 | 0.0 | 0.00 | 0.00 | 0.00 | 72 | 1012.3 |
| 20260509192003 | 64 | 0 | 0.0 | 0.0 | 0.00 | 0.00 | 0.00 | 72 | 1012.5 |
| 20260509191503 | 64 | 0 | 0.0 | 0.0 | 0.00 | 0.00 | 0.00 | 72 | 1012.3 |
| 20260509191003 | 64 | 0 | 0.0 | 0.0 | 0.00 | 0.00 | 0.00 | 72 | 1012.3 |
| 20260509190503 | 64 | 0 | 0.0 | 0.0 | 0.00 | 0.00 | 0.00 | 72 | 1012.1 |
| 20260509190003 | 64 | 45 | 0.0 | 1.0 | 0.00 | 0.00 | 0.00 | 72 | 1012.1 |
| 20260509185503 | 64 | 45 | 0.0 | 1.0 | 0.00 | 0.00 | 0.00 | 72 | 1011.9 |
| 20260509185003 | 64 | 0 | 0.0 | 0.0 | 0.00 | 0.00 | 0.00 | 72 | 1011.9 |
| 20260509184503 | 64 | 0 | 0.0 | 0.0 | 0.00 | 0.00 | 0.00 | 72 | 1011.8 |
| 20260509184003 | 64 | 0 | 0.0 | 0.0 | 0.00 | 0.00 | 0.00 | 72 | 1011.5 |
| 20260509183503 | 64 | 126 | 0.0 | 3.0 | 0.00 | 0.00 | 0.00 | 72 | 1011.6 |
| 20260509183003 | 64 | 152 | 0.0 | 1.0 | 0.00 | 0.00 | 0.00 | 72 | 1011.4 |
| 20260509182503 | 64 | 146 | 0.0 | 1.0 | 0.00 | 0.00 | 0.00 | 72 | 1011.3 |
| 20260509182003 | 64 | 157 | 0.0 | 1.0 | 0.00 | 0.00 | 0.00 | 72 | 1011.3 |
| 20260509181503 | 64 | 145 | 0.0 | 2.0 | 0.00 | 0.00 | 0.00 | 72 | 1011.3 |
| 20260509181003 | 65 | 154 | 0.0 | 2.0 | 0.00 | 0.00 | 0.00 | 72 | 1011.3 |
| 20260509180503 | 65 | 154 | 0.0 | 2.0 | 0.00 | 0.00 | 0.00 | 72 | 1011.3 |
| 20260509180003 | 65 | 143 | 0.0 | 2.0 | 0.00 | 0.00 | 0.00 | 72 | 1011.4 |
| 20260509175503 | 65 | 158 | 1.0 | 3.0 | 0.00 | 0.00 | 0.00 | 72 | 1011.4 |
| 20260509175003 | 65 | 157 | 0.0 | 2.0 | 0.00 | 0.00 | 0.00 | 72 | 1011.4 |
| 20260509174503 | 65 | 152 | 1.0 | 3.0 | 0.00 | 0.00 | 0.00 | 72 | 1011.2 |
| 20260509174003 | 65 | 162 | 1.0 | 3.0 | 0.00 | 0.00 | 0.00 | 72 | 1011.0 |
| 20260509173503 | 66 | 157 | 0.0 | 2.0 | 0.00 | 0.00 | 0.00 | 72 | 1011.0 |
| 20260509173003 | 66 | 140 | 1.0 | 2.0 | 0.00 | 0.00 | 0.00 | 72 | 1010.9 |
| 20260509172503 | 66 | 130 | 1.0 | 3.0 | 0.00 | 0.00 | 0.00 | 71 | 1010.8 |
| 20260509172003 | 66 | 135 | 1.0 | 3.0 | 0.00 | 0.00 | 0.00 | 71 | 1010.7 |
| 20260509171503 | 67 | 153 | 1.0 | 3.0 | 0.00 | 0.00 | 0.00 | 71 | 1010.7 |
| 20260509171003 | 67 | 152 | 1.0 | 2.0 | 0.00 | 0.00 | 0.00 | 71 | 1010.9 |
| 20260509170504 | 67 | 142 | 1.0 | 4.0 | 0.00 | 0.00 | 0.00 | 71 | 1010.6 |
| 20260509170003 | 67 | 152 | 2.0 | 4.0 | 0.00 | 0.00 | 0.00 | 71 | 1010.7 |
| 20260509165503 | 67 | 140 | 2.0 | 6.0 | 0.00 | 0.00 | 0.00 | 70 | 1010.8 |
| 20260509165003 | 68 | 137 | 1.0 | 5.0 | 0.00 | 0.00 | 0.00 | 70 | 1010.7 |
| 20260509164503 | 68 | 141 | 1.0 | 4.0 | 0.00 | 0.00 | 0.00 | 70 | 1010.8 |
| 20260509164003 | 68 | 145 | 1.0 | 4.0 | 0.00 | 0.00 | 0.00 | 70 | 1010.7 |
| 20260509163503 | 68 | 153 | 1.0 | 4.0 | 0.00 | 0.00 | 0.00 | 69 | 1010.9 |
| 20260509163003 | 68 | 148 | 1.0 | 6.0 | 0.00 | 0.00 | 0.00 | 69 | 1010.9 |
| 20260509162503 | 68 | 152 | 2.0 | 5.0 | 0.00 | 0.00 | 0.00 | 69 | 1010.9 |
| 20260509162003 | 69 | 142 | 1.0 | 6.0 | 0.00 | 0.00 | 0.00 | 69 | 1010.9 |
| 20260509161503 | 69 | 149 | 1.0 | 6.0 | 0.00 | 0.00 | 0.00 | 68 | 1010.9 |
| 20260509161003 | 69 | 153 | 1.0 | 4.0 | 0.00 | 0.00 | 0.00 | 68 | 1010.7 |
| 20260509160503 | 68 | 140 | 3.0 | 7.0 | 0.00 | 0.00 | 0.00 | 68 | 1010.5 |
| 20260509160003 | 69 | 166 | 2.0 | 6.0 | 0.00 | 0.00 | 0.00 | 68 | 1010.6 |
| 20260509155503 | 69 | 162 | 2.0 | 5.0 | 0.00 | 0.00 | 0.00 | 69 | 1010.5 |
| 20260509155004 | 69 | 165 | 2.0 | 5.0 | 0.00 | 0.00 | 0.00 | 70 | 1010.6 |
| 20260509154503 | 68 | 152 | 2.0 | 6.0 | 0.00 | 0.00 | 0.00 | 70 | 1010.7 |
| 20260509154003 | 68 | 152 | 2.0 | 5.0 | 0.00 | 0.00 | 0.00 | 70 | 1010.7 |
| 20260509153503 | 68 | 149 | 2.0 | 7.0 | 0.00 | 0.00 | 0.00 | 70 | 1010.9 |
| 20260509153003 | 69 | 146 | 2.0 | 9.0 | 0.00 | 0.00 | 0.00 | 70 | 1011.2 |
| 20260509152503 | 69 | 158 | 2.0 | 4.0 | 0.00 | 0.00 | 0.00 | 71 | 1010.9 |
| 20260509152003 | 68 | 157 | 4.0 | 8.0 | 0.00 | 0.00 | 0.00 | 70 | 1010.9 |
| 20260509151503 | 68 | 148 | 3.0 | 9.0 | 0.00 | 0.00 | 0.00 | 70 | 1011.1 |
| 20260509151003 | 68 | 151 | 3.0 | 9.0 | 0.00 | 0.00 | 0.00 | 70 | 1011.1 |
| 20260509150503 | 69 | 148 | 3.0 | 9.0 | 0.00 | 0.00 | 0.00 | 70 | 1011.0 |
| 20260509150003 | 69 | 149 | 3.0 | 7.0 | 0.00 | 0.00 | 0.00 | 70 | 1010.9 |
| 20260509145503 | 69 | 152 | 4.0 | 9.0 | 0.00 | 0.00 | 0.00 | 70 | 1011.0 |
| 20260509145003 | 69 | 163 | 4.0 | 11.0 | 0.00 | 0.00 | 0.00 | 70 | 1010.9 |
| 20260509144503 | 69 | 142 | 3.0 | 9.0 | 0.00 | 0.00 | 0.00 | 70 | 1011.0 |
| 20260509144003 | 69 | 151 | 3.0 | 9.0 | 0.00 | 0.00 | 0.00 | 69 | 1011.0 |
| 20260509143503 | 69 | 141 | 2.0 | 8.0 | 0.00 | 0.00 | 0.00 | 69 | 1011.1 |
| 20260509143003 | 70 | 173 | 2.0 | 4.0 | 0.00 | 0.00 | 0.00 | 69 | 1011.1 |
| 20260509142503 | 70 | 160 | 2.0 | 5.0 | 0.00 | 0.00 | 0.00 | 69 | 1011.2 |
| 20260509142003 | 69 | 151 | 2.0 | 8.0 | 0.00 | 0.00 | 0.00 | 69 | 1011.0 |